Regional Weather Roundup
Issued by NWS Bismarck, ND

Home | Current Version | Previous Version | Text Only | Print | Product List | Glossary On
Versions: 1 2 3 4 5 6 7 8 9 10 11 12 13 14 15 16 17 18 19 20 21 22 23 24 25 26 27 28 29 30 31 32 33 34 35 36 37 38 39 40 41 42 43 44 45 46 47 48 49 50
000
ASUS43 KBIS 030202
RWRBIS

NWR BROADCAST TEXT
NATIONAL WEATHER SERVICE BISMARCK ND
900 PM CDT SUN AUG 02 2015

NOTE: "FAIR" INDICATES FEW OR NO CLOUDS BELOW 12,000 FEET WITH NO
SIGNIFICANT WEATHER AND/OR OBSTRUCTIONS TO VISIBILITY.


CITY           SKY/WX    TMP DP  RH WIND       PRES   REMARKS
WILLISTON      CLEAR     75  46  35 N9        29.98R
MINOT          CLEAR     70  48  45 NW10      29.92S
MINOT AFB      CLEAR     72  52  49 NW8       29.92R
BISMARCK       CLEAR     74  51  44 N8        29.94S
DICKINSON      CLEAR     70  49  47 N6        29.98R
GARRISON         N/A     68  57  68 NW3       29.94S
HETTINGER ARPT CLEAR     72  49  44 NE10      30.00R
JAMESTOWN      CLEAR     66  54  65 NW7       29.89S
HAZEN          FAIR      72  52  49 CALM      29.96S
STANLEY        FAIR      68  54  60 NW6       29.98S
$$

CITY           SKY/WX    TMP DP  RH WIND       PRES   REMARKS
GRAND FORKS    PTCLDY    66  50  56 NW7       29.82R
GRAND FORKS AF NOT AVBL
DEVILS LAKE    CLEAR     66  48  52 NW8       29.88R
FARGO          CLEAR     68  52  56 W6        29.84S
GRAFTON        FAIR      70  50  49 W10       29.83S
GWINNER        FAIR      68  54  60 NW5       29.89R
LANGDON        FAIR      64  50  59 W9        29.88R
$$

CITY           SKY/WX    TMP DP  RH WIND       PRES   REMARKS
ABERDEEN       CLEAR     74  59  59 NE3       29.89R
MOBRIDGE       CLEAR     72  58  61 NE5       29.91R
BUFFALO          N/A     75  50  41 NE10      29.95R
RAPID CITY     CLEAR     74  56  53 NE10      29.99R
GLASGOW        CLEAR     78  47  33 N7        29.98R
SIDNEY         CLEAR    N/A N/A N/A N8        29.97R
WOLF POINT     CLEAR     79  46  31 NE9       29.98R
GLENDIVE         N/A    N/A N/A N/A MISG        N/A
MILES CITY     CLEAR     81  50  33 E10       29.97R
BAKER          CLEAR     76  48  37 NE8       30.02R
$$

CITY           SKY/WX    TMP DP  RH WIND       PRES   REMARKS
BILLINGS       MOCLDY    82  42  24 NE10      29.99S
GREAT FALLS    CLEAR     82  40  22 E10       29.95S
$$



USA.gov is the U.S. government's official web portal to all federal, state and local government web resources and services.